Date,TemperatureHighF,TemperatureAvgF,TemperatureLowF,DewpointHighF,DewpointAvgF,DewpointLowF,HumidityHigh,HumidityAvg,HumidityLow,PressureMaxIn,PressureMinIn,WindSpeedMaxMPH,WindSpeedAvgMPH,GustSpeedMaxMPH,PrecipitationSumIn
2013-3-1,30.0,26.3,19.0,28.0,24.4,16.0,100,96,86,29.59,29.41,16,5,16,0.01
2013-3-2,22.0,18.1,13.0,21.0,16.4,11.0,100,97,92,29.59,29.52,18,6,20,0.00
2013-3-3,22.0,16.5,12.0,18.0,14.2,11.0,100,94,87,29.56,29.49,18,6,21,0.00
2013-3-4,21.0,17.2,14.0,17.0,15.3,12.0,100,95,87,29.82,29.53,19,6,19,0.00
2013-3-5,38.0,24.1,17.0,27.0,19.5,14.0,98,88,66,29.90,29.72,11,3,14,0.09
2013-3-6,35.0,27.9,16.0,28.0,22.6,14.0,99,84,70,29.95,29.84,16,3,19,0.01
2013-3-7,31.0,26.6,22.0,23.0,20.9,19.0,100,83,67,29.98,29.91,10,2,11,0.00
2013-3-8,40.0,27.6,14.0,25.0,21.3,7.0,100,82,52,30.15,29.91,19,4,21,0.13
2013-3-9,50.0,30.5,9.0,27.0,17.1,7.0,97,66,30,30.15,30.08,11,2,12,0.15
2013-3-10,50.0,35.5,18.0,27.0,20.0,16.0,98,61,29,30.13,29.92,13,2,14,0.00
2013-3-11,47.0,39.0,33.0,43.0,28.9,22.0,100,70,49,30.00,29.65,13,3,14,0.38
2013-3-12,45.0,37.4,30.0,45.0,37.2,28.0,100,99,85,29.78,29.54,16,4,16,1.35
2013-3-13,34.0,28.8,23.0,31.0,25.4,9.0,100,91,68,29.65,29.53,21,4,21,0.01
2013-3-14,23.0,14.7,11.0,20.0,8.8,-1.0,93,81,66,29.68,29.53,21,6,28,0.00
2013-3-15,28.0,17.3,3.0,26.0,13.1,-1.0,100,87,62,29.68,29.35,20,4,23,0.00
2013-3-16,24.0,15.5,3.0,14.0,8.4,-2.0,97,78,55,29.76,29.55,13,4,14,0.00
2013-3-17,21.0,10.6,1.0,8.0,0.2,-13.0,95,68,41,30.18,29.68,18,4,23,0.00
2013-3-18,28.0,14.8,-9.0,19.0,1.3,-13.0,96,62,33,30.19,29.66,13,4,15,0.00
2013-3-19,28.0,23.4,16.0,28.0,23.2,15.0,100,99,84,29.81,29.49,17,4,21,0.00
2013-3-20,28.0,20.9,15.0,23.0,17.8,6.0,100,91,75,29.53,29.45,24,5,26,0.00
2013-3-21,26.0,18.4,8.0,19.0,12.6,3.0,100,82,61,29.52,29.42,19,3,19,0.00
2013-3-22,26.0,17.4,6.0,23.0,13.7,3.0,99,90,75,29.56,29.44,18,4,21,0.00
2013-3-23,29.0,24.8,21.0,22.0,19.4,16.0,100,84,66,29.69,29.51,33,7,35,0.00
2013-3-24,32.0,26.8,14.0,23.0,19.7,9.0,92,78,65,29.69,29.52,13,4,16,0.00
2013-3-25,36.0,27.0,11.0,30.0,18.9,9.0,100,76,54,29.60,29.38,13,3,14,0.12
2013-3-26,38.0,31.1,24.0,24.0,18.8,15.0,88,64,42,29.66,29.44,16,3,16,0.00
2013-3-27,40.0,31.7,23.0,26.0,22.8,16.0,89,74,51,29.78,29.62,16,4,18,0.00
2013-3-28,40.0,33.5,28.0,35.0,29.5,24.0,99,88,73,29.91,29.75,16,4,18,0.02
2013-3-29,38.0,33.4,23.0,34.0,28.8,21.0,100,87,69,29.93,29.86,14,4,18,0.01
2013-3-30,44.0,32.7,19.0,33.0,18.4,11.0,100,64,28,29.94,29.85,16,3,18,0.00
2013-3-31,48.0,34.1,17.0,35.0,23.2,13.0,98,71,37,29.92,29.40,19,3,20,0.04